Volver al catálogo

STARLINK-35516

ActivoComunicacionesVLEO
NORAD 65918·PAYLOAD·🇺🇸 United States

Lanzado Oct 8, 2025 desde Vandenberg Space Force Base

Loading…

Próximos Pases (próximas 24 horas)

TLE

ActualizadoSource: CelesTrak SupGP

Época: Sep 14, 2026, 14:39 UTC

1 65918C 25225J   26257.61090278  .00008219  00000+0  24297-3 0  2573
2 65918  53.1598   7.4070 0001198  69.0441 283.4965 15.34367895    12

Sigue STARLINK-35516 en tiempo real con AllMySat

Download on the App Store